Kuching, Malaysia

5:00 PM MYT on September 28, 2016 (GMT +0800)
Kuching International

Weather History for WBGG - June, 2013

Change the Weather History Date:

Sunday, June 30, 2013

  Actual Average Record
Temperature  
Mean Temperature 84 °F -  
Max Temperature 93 °F - - ()
Min Temperature 74 °F - - ()
Cooling Degree Days 18    
Growing Degree Days 34 (Base 50)    
Moisture  
Dew Point 74 °F    
Average Humidity 80    
Maximum Humidity 100    
Minimum Humidity 39    
Precipitation  
Precipitation 0.98 in - - ()
Sea Level Pressure  
Sea Level Pressure 29.81 in    
Wind  
Wind Speed 3 mph ()    
Max Wind Speed 12 mph    
Max Gust Speed 24 mph    
Visibility 4.5 miles    
Events Rain , Thunderstorm    
T = Trace of Precipitation, MM = Missing Value Source: Averaged Metar Reports

Daily Weather History Graph

Daily Weather History Graph

Search for Another Location

Airport or City:

Trip Planner

Search our weather history database for the weather conditions in past years. The results will help you decide how hot, cold, wet, or windy it might be!

Date:

Astronomy

Jun. 30, 2013 Rise Set
Actual Time 6:36 AM MYT 6:48 PM MYT
Civil Twilight 6:13 AM MYT 7:11 PM MYT
Nautical Twilight 5:47 AM MYT 7:37 PM MYT
Astronomical Twilight 5:20 AM MYT 8:03 PM MYT
Moon 12:07 AM MYT (6/30) 12:31 PM MYT (6/30)
Length of Visible Light 12h 57m
Length of Day
12h 12m
Waning Gibbous, 51% of the Moon is Illuminated
Jun 30
Waning Gibbous
Jun 30
Last Quarter
Jul 8
New
Jul 16
First Quarter
Jul 23
Full

Hourly Weather History & Observations

Time (MYT) Temp. Heat Index Dew Point Humidity Pressure Visibility Wind Dir Wind Speed Gust Speed Precip Events Conditions
12:00 AM 77.0 °F - 75.2 °F 94% 29.89 in 3.7 mi SSW 3.5 mph - N/A   Mostly Cloudy
12:30 AM 77.0 °F - 73.4 °F 89% 29.89 in 3.7 mi WSW 1.2 mph - N/A   Mostly Cloudy
1:00 AM 77.0 °F - 73.4 °F 89% 29.86 in 3.7 mi SSW 2.3 mph - N/A   Mostly Cloudy
1:30 AM 77.0 °F - 73.4 °F 89% 29.86 in 3.7 mi WSW 1.2 mph - N/A   Mostly Cloudy
2:00 AM 77 °F - 74 °F 86% 29.86 in 4 mi WSW 3.5 mph - -   Partly Cloudy
2:00 AM 77.0 °F - 73.4 °F 89% 29.86 in 3.7 mi WSW 3.5 mph - N/A   Mostly Cloudy
2:30 AM 77.0 °F - 73.4 °F 89% 29.83 in 3.7 mi SW 5.8 mph - N/A   Mostly Cloudy
3:00 AM 77.0 °F - 73.4 °F 89% 29.83 in 3.7 mi WSW 2.3 mph - N/A   Mostly Cloudy
3:30 AM 75.2 °F - 73.4 °F 94% 29.83 in 3.7 mi SSW 1.2 mph - N/A   Mostly Cloudy
4:00 AM 75.2 °F - 73.4 °F 94% 29.80 in 3.7 mi South 2.3 mph - N/A   Mostly Cloudy
4:30 AM 75.2 °F - 73.4 °F 94% 29.83 in 3.7 mi SSW 2.3 mph - N/A   Mostly Cloudy
5:00 AM 76 °F - 73 °F 89% 29.83 in 4 mi WSW 3.5 mph - -   Haze
5:00 AM 75.2 °F - 73.4 °F 94% 29.80 in 3.7 mi WSW 3.5 mph - N/A   Mostly Cloudy
5:30 AM 75.2 °F - 73.4 °F 94% 29.80 in 3.7 mi WSW 3.5 mph - N/A   Mostly Cloudy
6:00 AM 75.2 °F - 73.4 °F 94% 29.83 in 3.7 mi SW 3.5 mph - N/A   Mostly Cloudy
6:30 AM 73.4 °F - 73.4 °F 100% 29.83 in 3.7 mi South 2.3 mph - N/A   Mostly Cloudy
7:00 AM 75.2 °F - 73.4 °F 94% 29.83 in 5.0 mi SW 1.2 mph - N/A   Mostly Cloudy
7:30 AM 75.2 °F - 73.4 °F 94% 29.83 in 5.0 mi SW 1.2 mph - N/A   Mostly Cloudy
8:00 AM 79 °F - 74 °F 81% 29.85 in 5 mi NNW 1.2 mph - -   Haze
8:00 AM 78.8 °F - 73.4 °F 83% 29.83 in 5.0 mi NNW 1.2 mph - N/A   Mostly Cloudy
8:30 AM 80.6 °F 86.2 °F 75.2 °F 84% 29.83 in 5.0 mi NNW 1.2 mph - N/A   Mostly Cloudy
9:00 AM 82.4 °F 88.2 °F 73.4 °F 74% 29.83 in 5.0 mi West 1.2 mph - N/A   Mostly Cloudy
9:30 AM 86.0 °F 95.1 °F 75.2 °F 70% 29.83 in 5.0 mi North 1.2 mph - N/A   Mostly Cloudy
10:00 AM 86.0 °F 95.1 °F 75.2 °F 70% 29.83 in 5.0 mi ENE 1.2 mph - N/A   Mostly Cloudy
10:30 AM 87.8 °F 97.6 °F 75.2 °F 66% 29.83 in 5.0 mi SE 2.3 mph - N/A   Mostly Cloudy
11:00 AM 88 °F - 75 °F 57% 29.83 in 5 mi NW 3.5 mph - -   Haze
11:00 AM 87.8 °F 97.6 °F 75.2 °F 66% 29.80 in 5.0 mi NW 3.5 mph - N/A   Mostly Cloudy
11:30 AM 89.6 °F 98.2 °F 73.4 °F 59% 29.80 in 5.0 mi East 3.5 mph - N/A   Mostly Cloudy
12:00 PM 89.6 °F 96.2 °F 71.6 °F 55% 29.80 in 5.0 mi East 2.3 mph - N/A   Mostly Cloudy
12:30 PM 91.4 °F 100.1 °F 73.4 °F 55% 29.80 in 5.0 mi ESE 2.3 mph - N/A   Mostly Cloudy
1:00 PM 93.2 °F 102.4 °F 73.4 °F 52% 29.80 in 6.2 mi East 3.5 mph - N/A   Mostly Cloudy
1:30 PM 91.4 °F 98.4 °F 71.6 °F 52% 29.77 in 6.2 mi ENE 4.6 mph - N/A   Mostly Cloudy
2:00 PM 93 °F - 71 °F 39% 29.78 in 7 mi NNE 2.3 mph - -   Haze
2:00 PM 93.2 °F 100.5 °F 71.6 °F 49% 29.77 in 6.2 mi NNE 2.3 mph - N/A   Mostly Cloudy
2:30 PM 93.2 °F 98.8 °F 69.8 °F 46% 29.74 in 6.2 mi West 4.6 mph - N/A   Mostly Cloudy
3:00 PM 93.2 °F 98.8 °F 69.8 °F 46% 29.74 in 6.2 mi West 6.9 mph - N/A   Mostly Cloudy
3:30 PM 93.2 °F 102.4 °F 73.4 °F 52% 29.71 in 6.2 mi North 5.8 mph - N/A   Mostly Cloudy
4:00 PM 91.4 °F 98.4 °F 71.6 °F 52% 29.71 in 6.2 mi West 10.4 mph - N/A   Mostly Cloudy
4:30 PM 84.2 °F 92.3 °F 75.2 °F 74% 29.71 in 1.9 mi West 11.5 mph 24.2 mph N/A Rain , Thunderstorm Light Thunderstorms and Rain
5:00 PM 80 °F - 74 °F 78% 29.74 in 4 mi ENE 8.1 mph - - Rain , Thunderstorm Thunderstorms and Rain
5:00 PM 80.6 °F 86.2 °F 75.2 °F 84% 29.71 in 3.7 mi ENE 8.1 mph - N/A Rain , Thunderstorm Light Thunderstorms and Rain
5:30 PM 78.8 °F - 75.2 °F 89% 29.74 in 5.0 mi East 4.6 mph - N/A Rain , Thunderstorm Light Thunderstorms and Rain
6:00 PM 78.8 °F - 73.4 °F 83% 29.77 in 6.2 mi West 9.2 mph - N/A Rain Light Rain
6:30 PM 77.0 °F - 73.4 °F 89% 29.80 in 1.2 mi West 10.4 mph - N/A Rain , Thunderstorm Light Thunderstorms and Rain
7:00 PM 75.2 °F - 73.4 °F 94% 29.83 in 0.6 mi West 5.8 mph - N/A Rain , Thunderstorm Heavy Thunderstorms and Rain
7:30 PM 75.2 °F - 73.4 °F 94% 29.83 in 1.9 mi WNW 4.6 mph - N/A Rain , Thunderstorm Thunderstorms and Rain
8:00 PM 77 °F - 74 °F 87% 29.83 in 3 mi WNW 2.3 mph - - Rain Heavy Rain
8:00 PM 77.0 °F - 73.4 °F 89% 29.83 in 3.1 mi WNW 2.3 mph - N/A Rain Rain
8:30 PM 77.0 °F - 75.2 °F 94% 29.83 in 3.1 mi South 2.3 mph - N/A Rain Rain
9:00 PM 77.0 °F - 75.2 °F 94% 29.83 in 3.7 mi South 4.6 mph - N/A Rain Rain
9:30 PM 75.2 °F - 75.2 °F 100% 29.83 in 4.3 mi South 5.8 mph - N/A Rain Light Rain
10:00 PM 75.2 °F - 73.4 °F 94% 29.83 in 5.0 mi East 2.3 mph - N/A Rain Light Rain
10:30 PM 75.2 °F - 75.2 °F 100% 29.86 in 6.2 mi SSW 2.3 mph - N/A Rain Light Rain
11:00 PM 76 °F - 74 °F 94% 29.87 in 6 mi South 2.3 mph - - Rain Light Rain
11:00 PM 77.0 °F - 75.2 °F 94% 29.86 in 6.2 mi South 2.3 mph - N/A Rain Light Rain
11:30 PM 77.0 °F - 73.4 °F 89% 29.86 in 6.2 mi SSE 2.3 mph - N/A   Mostly Cloudy